Total_Precipitation_Accumulation
0.33 0.57 0.78 0.69 0.75 0.79 0.64 0.63 0.71 0.68 0.53 0.58 0.59 0.51 0.54 0.54 0.52 0.42 0.36 0.34 0.31 0.28 0.30 0.29 0.27 0.28 0.27 0.30 0.33 0.39 0.56 0.72 0.88 0.99 1.13 1.38 1.54 1.64 1.63 1.63 1.70 1.62 1.44 1.52
0.48 0.54 0.42 0.45 0.49 0.56 0.60 0.63 0.65 0.58 0.44 0.49 0.52 0.49 0.48 0.49 0.45 0.35 0.31 0.30 0.26 0.22 0.21 0.22 0.20 0.20 0.21 0.21 0.25 0.32 0.47 0.70 0.93 1.15 1.33 1.52 1.84 2.00 2.00 2.06 2.01 1.96 1.85 1.87
0.42 0.41 0.33 0.39 0.44 0.51 0.55 0.54 0.56 0.53 0.51 0.47 0.47 0.50 0.49 0.47 0.40 0.30 0.23 0.22 0.20 0.17 0.19 0.20 0.20 0.16 0.15 0.15 0.19 0.25 0.38 0.59 0.89 1.19 1.45 1.64 1.88 2.14 2.24 2.15 2.10 2.13 2.21 2.26
0.38 0.34 0.30 0.34 0.37 0.46 0.63 0.40 0.39 0.42 0.48 0.58 0.48 0.63 0.58 0.50 0.43 0.33 0.25 0.22 0.20 0.18 0.18 0.18 0.17 0.17 0.16 0.17 0.18 0.23 0.37 0.52 0.73 0.99 1.32 1.57 1.84 2.15 2.22 2.20 2.17 2.21 2.33 2.42
0.39 0.35 0.32 0.37 0.34 0.38 0.49 0.31 0.33 0.39 0.38 0.42 0.39 0.54 0.55 0.46 0.47 0.42 0.34 0.29 0.24 0.20 0.21 0.19 0.17 0.18 0.22 0.22 0.23 0.29 0.43 0.56 0.74 0.98 1.30 1.63 1.82 1.99 2.19 2.20 2.12 2.05 2.12 2.14
0.40 0.32 0.32 0.32 0.27 0.27 0.35 0.35 0.35 0.36 0.38 0.42 0.31 0.44 0.53 0.46 0.43 0.42 0.37 0.32 0.24 0.17 0.20 0.24 0.27 0.28 0.29 0.32 0.35 0.42 0.54 0.74 0.88 0.97 1.12 1.29 1.50 1.78 1.92 2.02 2.06 2.07 2.07 1.95
0.37 0.31 0.23 0.19 0.26 0.27 0.30 0.43 0.56 0.56 0.56 0.50 0.26 0.38 0.48 0.38 0.32 0.34 0.34 0.31 0.27 0.26 0.30 0.38 0.48 0.45 0.43 0.46 0.54 0.60 0.66 0.76 0.81 0.80 0.87 1.00 1.17 1.38 1.52 1.61 1.81 1.88 1.92 1.87
0.33 0.29 0.21 0.17 0.19 0.27 0.28 0.35 0.54 0.62 0.54 0.45 0.38 0.51 0.52 0.41 0.33 0.31 0.32 0.27 0.27 0.33 0.42 0.57 0.69 0.73 0.69 0.67 0.68 0.65 0.66 0.63 0.63 0.67 0.73 0.81 0.88 1.02 1.13 1.21 1.37 1.50 1.50 1.48
0.29 0.27 0.15 0.13 0.11 0.18 0.24 0.20 0.22 0.35 0.34 0.38 0.44 0.58 0.56 0.40 0.33 0.32 0.33 0.28 0.32 0.44 0.58 0.75 0.87 0.95 0.90 0.82 0.75 0.71 0.72 0.68 0.60 0.62 0.69 0.76 0.81 0.82 0.85 0.89 0.89 0.97 1.06 1.09
0.23 0.26 0.17 0.11 0.10 0.13 0.16 0.16 0.20 0.38 0.52 0.54 0.50 0.58 0.65 0.53 0.42 0.42 0.45 0.49 0.58 0.74 0.81 0.92 1.00 0.99 0.98 1.02 0.96 0.79 0.73 0.74 0.68 0.74 0.75 0.73 0.71 0.70 0.68 0.72 0.77 0.78 0.87 0.98
0.21 0.27 0.20 0.11 0.12 0.15 0.15 0.19 0.29 0.44 0.52 0.70 0.82 0.90 0.73 0.60 0.58 0.57 0.60 0.78 0.84 0.93 1.00 1.02 1.09 1.02 0.90 0.91 0.88 0.87 0.81 0.76 0.77 0.81 0.81 0.71 0.68 0.68 0.68 0.66 0.68 0.76 0.85 0.95
0.26 0.35 0.28 0.14 0.14 0.17 0.26 0.39 0.51 0.73 0.72 0.70 0.96 1.13 0.81 0.66 0.68 0.71 0.70 0.68 0.68 0.84 0.95 0.99 1.05 0.98 0.83 0.78 0.69 0.72 0.80 0.82 0.87 0.88 0.81 0.72 0.72 0.75 0.80 0.78 0.70 0.71 0.77 0.79
0.34 0.49 0.47 0.30 0.31 0.36 0.41 0.50 0.63 0.77 0.89 0.89 0.99 1.11 0.85 0.64 0.62 0.68 0.76 0.72 0.69 0.72 0.74 0.73 0.74 0.81 0.77 0.73 0.65 0.71 0.77 0.82 0.87 0.88 0.86 0.77 0.67 0.70 0.75 0.76 0.68 0.66 0.70 0.74
0.29 0.46 0.57 0.50 0.45 0.46 0.44 0.40 0.46 0.69 0.94 0.95 1.00 0.98 0.76 0.64 0.60 0.62 0.67 0.72 0.67 0.57 0.53 0.51 0.48 0.53 0.56 0.58 0.63 0.67 0.78 0.90 0.95 0.93 0.86 0.83 0.77 0.79 0.74 0.64 0.62 0.64 0.63 0.61
0.21 0.23 0.25 0.23 0.21 0.26 0.33 0.36 0.44 0.57 0.76 0.98 0.89 0.68 0.57 0.55 0.51 0.51 0.56 0.50 0.44 0.39 0.38 0.36 0.33 0.34 0.35 0.38 0.46 0.53 0.67 0.82 0.95 0.99 0.94 0.87 0.81 0.71 0.64 0.58 0.51 0.52 0.48 0.48
0.27 0.22 0.11 0.09 0.11 0.17 0.28 0.42 0.55 0.61 0.68 0.70 0.61 0.57 0.44 0.38 0.33 0.33 0.38 0.38 0.37 0.32 0.27 0.24 0.24 0.22 0.24 0.30 0.36 0.37 0.49 0.64 0.76 0.81 0.82 0.83 0.79 0.63 0.55 0.49 0.42 0.40 0.41 0.42
0.13 0.16 0.13 0.10 0.10 0.18 0.41 0.53 0.60 0.59 0.55 0.46 0.43 0.39 0.28 0.25 0.18 0.18 0.23 0.26 0.30 0.29 0.24 0.21 0.20 0.21 0.23 0.30 0.32 0.33 0.42 0.53 0.58 0.62 0.66 0.68 0.64 0.51 0.45 0.36 0.32 0.35 0.36 0.39
0.12 0.16 0.22 0.15 0.15 0.36 0.62 0.52 0.45 0.48 0.38 0.24 0.21 0.21 0.20 0.16 0.12 0.10 0.10 0.12 0.14 0.17 0.16 0.21 0.18 0.17 0.19 0.25 0.29 0.38 0.40 0.42 0.43 0.47 0.50 0.49 0.49 0.44 0.37 0.30 0.29 0.31 0.34 0.38
0.18 0.24 0.29 0.25 0.26 0.44 0.57 0.38 0.35 0.40 0.35 0.17 0.12 0.12 0.10 0.08 0.06 0.04 0.04 0.05 0.07 0.06 0.07 0.10 0.10 0.09 0.10 0.11 0.12 0.15 0.17 0.20 0.24 0.32 0.38 0.42 0.42 0.38 0.33 0.28 0.35 0.41 0.41 0.40
0.31 0.33 0.34 0.34 0.40 0.52 0.40 0.16 0.15 0.28 0.42 0.16 0.07 0.06 0.05 0.05 0.05 0.03 0.03 0.05 0.04 0.03 0.03 0.03 0.05 0.04 0.03 0.03 0.03 0.04 0.06 0.10 0.13 0.20 0.26 0.31 0.35 0.37 0.40 0.48 0.56 0.56 0.53 0.47
0.20 0.26 0.32 0.41 0.59 0.60 0.35 0.13 0.16 0.29 0.43 0.22 0.08 0.03 0.02 0.02 0.02 0.01 0.03 0.04 0.03 0.02 0.01 0.01 0.03 0.03 0.01 0.01 0.01 0.01 0.02 0.02 0.03 0.05 0.10 0.20 0.33 0.39 0.47 0.58 0.60 0.59 0.53 0.45
0.19 0.29 0.40 0.52 0.70 0.77 0.39 0.20 0.23 0.21 0.14 0.11 0.05 0.03 0.02 0.01 0.01 0.02 0.02 0.02 0.02 0.01 0.01 0.01 0.01 0.01 0.01 0.02 0.01 0.01 0.01 0.02 0.02 0.04 0.08 0.14 0.21 0.31 0.44 0.53 0.52 0.50 0.49 0.46
0.18 0.34 0.46 0.51 0.57 0.49 0.29 0.19 0.13 0.09 0.09 0.04 0.02 0.01 0.01 0.01 0.01 0.02 0.02 0.02 0.01 0.01 0.01 0.00 0.01 0.01 0.01 0.02 0.03 0.03 0.03 0.03 0.02 0.02 0.03 0.06 0.12 0.23 0.37 0.41 0.40 0.43 0.46 0.45
0.09 0.11 0.19 0.21 0.16 0.15 0.12 0.09 0.05 0.04 0.04 0.01 0.01 0.01 0.01 0.01 0.01 0.01 0.01 0.01 0.01 0.01 0.01 0.00 0.01 0.01 0.01 0.01 0.02 0.04 0.04 0.04 0.02 0.01 0.01 0.02 0.03 0.06 0.11 0.16 0.21 0.27 0.32 0.33
0.09 0.10 0.17 0.21 0.10 0.06 0.05 0.04 0.03 0.02 0.02 0.01 0.00 0.00 0.01 0.01 0.01 0.01 0.00 0.01 0.01 0.01 0.01 0.00 0.00 0.00 0.00 0.00 0.00 0.01 0.03 0.04 0.03 0.02 0.01 0.01 0.03 0.04 0.05 0.07 0.10 0.14 0.16 0.20
0.05 0.12 0.17 0.20 0.13 0.07 0.04 0.03 0.02 0.02 0.01 0.01 0.01 0.00 0.00 0.01 0.01 0.01 0.00 0.00 0.01 0.01 0.01 0.01 0.01 0.00 0.00 0.00 0.00 0.00 0.00 0.01 0.01 0.01 0.01 0.01 0.02 0.03 0.03 0.04 0.05 0.06 0.08 0.10